Medicine Hat, Alberta

3:24 PM MDT on April 27, 2017 (GMT -0600)
Medicine Hat

Weather History for CYXH - March, 2013

Change the Weather History Date:

Sunday, March 24, 2013

  Actual Average Record
Temperature  
Mean Temperature 16 °F -  
Max Temperature 32 °F 52 °F 69 °F (2007)
Min Temperature 1 °F 29 °F -37 °F (2017)
Degree Days  
Heating Degree Days 48    
Moisture  
Dew Point 8 °F    
Average Humidity 78    
Maximum Humidity 92    
Minimum Humidity 41    
Precipitation  
Precipitation 0.01 in 0.03 in - ()
Sea Level Pressure  
Sea Level Pressure 30.49 in    
Wind  
Wind Speed 3 mph ()    
Max Wind Speed 12 mph    
Max Gust Speed -    
Visibility 9.9 miles    
Events Snow    
Averages and records for this station are not official NWS values.
T = Trace of Precipitation, MM = Missing Value Source: Averaged Metar Reports

Daily Weather History Graph

Daily Weather History Graph

Search for Another Location

Airport or City:

Trip Planner

Search our weather history database for the weather conditions in past years. The results will help you decide how hot, cold, wet, or windy it might be!

Date:

Astronomy

Mar. 24, 2013 Rise Set
Actual Time 7:16 AM MDT 7:42 PM MDT
Civil Twilight 6:43 AM MDT 8:15 PM MDT
Nautical Twilight 6:05 AM MDT 8:53 PM MDT
Astronomical Twilight 5:25 AM MDT 9:34 PM MDT
Moon 5:03 PM MDT (3/24) 5:42 AM MDT (3/24)
Length of Visible Light 13h 31m
Length of Day
12h 26m
Waxing Gibbous, 92% of the Moon is Illuminated
Mar 24
Waxing Gibbous
Mar 27
Full
Apr 2
Last Quarter
Apr 10
New
Apr 18
First Quarter

Hourly Weather History & Observations

Time (MDT) Temp. Windchill Dew Point Humidity Pressure Visibility Wind Dir Wind Speed Gust Speed Precip Events Conditions
12:00 AM 5 °F - 3 °F 85% 30.62 in - South 10.4 mph - -  
12:00 AM 10.4 °F 2.2 °F 8.6 °F 92% 30.51 in 9.0 mi North 4.6 mph - N/A   Clear
12:06 AM 10.4 °F - 8.6 °F 92% 30.51 in 9.0 mi Calm Calm - N/A Snow Light Snow
12:44 AM 8.6 °F - 6.8 °F 92% 30.51 in 9.0 mi Calm Calm - N/A   Clear
1:00 AM 8.6 °F - 6.8 °F 92% 30.51 in 9.0 mi Calm Calm - N/A   Clear
2:00 AM 8.6 °F - 6.8 °F 92% 30.51 in 9.0 mi Variable 2.3 mph - N/A   Clear
3:00 AM 6.8 °F - 5.0 °F 92% 30.51 in 9.0 mi West 2.3 mph - N/A   Clear
4:00 AM 6.8 °F - 5.0 °F 92% 30.51 in 9.0 mi Variable 2.3 mph - N/A   Clear
5:00 AM 5.0 °F -2.1 °F 3.2 °F 92% 30.51 in 9.0 mi WSW 3.5 mph - N/A   Clear
6:00 AM 3 °F - 1 °F 88% 30.63 in - North 5.8 mph - -  
6:00 AM 5.0 °F - 3.2 °F 92% 30.52 in 9.0 mi WSW 2.3 mph - N/A   Clear
7:00 AM 3.2 °F - 1.4 °F 92% 30.53 in 15.0 mi Calm Calm - N/A   Partly Cloudy
8:00 AM 5.0 °F - 3.2 °F 92% 30.54 in 30.0 mi Calm Calm - N/A   Partly Cloudy
9:00 AM 8.6 °F - 6.8 °F 92% 30.54 in 30.0 mi Calm Calm - N/A   Scattered Clouds
10:00 AM 12.2 °F - 10.4 °F 92% 30.53 in 30.0 mi Calm Calm - N/A   Scattered Clouds
11:00 AM 17.6 °F 12.3 °F 12.2 °F 79% 30.52 in 30.0 mi ESE 3.5 mph - N/A   Scattered Clouds
12:00 PM 2 °F - -1 °F 80% 30.62 in - NNW 11.5 mph - -  
12:00 PM 21.2 °F - 12.2 °F 68% 30.51 in 30.0 mi Calm Calm - N/A   Partly Cloudy
2:00 PM 26.6 °F 20.0 °F 14.0 °F 59% 30.46 in 30.0 mi Variable 5.8 mph - N/A   Partly Cloudy
3:00 PM 28.4 °F - 15.8 °F 59% 30.44 in 30.0 mi Calm Calm - N/A   Partly Cloudy
4:00 PM 32.0 °F 28.7 °F 10.4 °F 41% 30.42 in 30.0 mi SSE 3.5 mph - N/A   Clear
5:00 PM 32.0 °F - 12.2 °F 44% 30.42 in 30.0 mi Calm Calm - N/A   Clear
6:00 PM 1 °F - -2 °F 82% 30.63 in - NW 4.6 mph - -  
6:00 PM 32.0 °F - 15.8 °F 51% 30.40 in 30.0 mi NNE 2.3 mph - N/A   Clear
7:00 PM 30.2 °F 25.4 °F 15.8 °F 55% 30.39 in 30.0 mi North 4.6 mph - N/A   Clear
8:00 PM 28.4 °F 24.6 °F 14.0 °F 55% 30.38 in 30.0 mi SE 3.5 mph - N/A   Clear
9:00 PM 24.8 °F 17.9 °F 14.0 °F 64% 30.37 in 15.0 mi SE 5.8 mph - N/A   Clear
10:00 PM 21.2 °F 11.7 °F 15.8 °F 80% 30.36 in 9.0 mi East 8.1 mph - N/A   Clear
11:00 PM 19.4 °F 12.8 °F 15.8 °F 86% 30.35 in 9.0 mi ESE 4.6 mph - N/A   Clear